This is the latest recevied weather packets stored in our database for station/object N7MLR. If no packets are shown the sender has not sent any weather packets the latest 10 day(s).
| Time | Temp. | Humidity | Pressure | Rain* | Wind** | Luminosity | Snow |
|---|---|---|---|---|---|---|---|
| 1777416415 | 31.11° C | 72% | 1009.6 hPa | 0 mm | - | 177 W/m² | - |
| 1777416110 | 30.56° C | 75% | 1009.6 hPa | 0 mm | - | 184 W/m² | - |
| 1777415804 | 30.56° C | 75% | 1009.6 hPa | 0 mm | - | 195 W/m² | - |
| 1777415501 | 30.56° C | 75% | 1009.7 hPa | 0 mm | - | 186 W/m² | - |
| 1777415197 | 30° C | 75% | 1010 hPa | 0 mm | - | 214 W/m² | - |
| 1777414892 | 30° C | 76% | 1009.9 hPa | 0 mm | - | 214 W/m² | - |
| 1777414591 | 30° C | 76% | 1010.1 hPa | 0 mm | - | 195 W/m² | - |
| 1777414286 | 30.56° C | 76% | 1010.2 hPa | 0 mm | - | 210 W/m² | - |
| 1777413981 | 30° C | 76% | 1010.4 hPa | 0 mm | - | 231 W/m² | - |
| 1777413677 | 30° C | 76% | 1010.4 hPa | 0 mm | - | 255 W/m² | - |
| 1777413373 | 30.56° C | 74% | 1010.6 hPa | 0 mm | - | 277 W/m² | - |
| 1777413069 | 30.56° C | 74% | 1010.6 hPa | 0 mm | - | 254 W/m² | - |
| 1777412764 | 30.56° C | 74% | 1010.7 hPa | 0 mm | - | 222 W/m² | - |
| 1777412463 | 30.56° C | 75% | 1010.8 hPa | 0 mm | - | 214 W/m² | - |
| 1777412161 | 30.56° C | 75% | 1010.6 hPa | 0 mm | - | 193 W/m² | - |
| 1777411857 | 30° C | 74% | 1011.1 hPa | 0 mm | - | 230 W/m² | - |
| 1777411555 | 29.44° C | 77% | 1010.7 hPa | 0 mm | - | 308 W/m² | - |
| 1777411250 | 30° C | 77% | 1011.1 hPa | 0 mm | - | 232 W/m² | - |
| 1777410945 | 30° C | 77% | 1011.1 hPa | 0 mm | - | 233 W/m² | - |
| 1777410645 | 30° C | 77% | 1011.3 hPa | 0 mm | - | 236 W/m² | - |
| 1777410340 | 30° C | 77% | 1011.2 hPa | 0 mm | - | 345 W/m² | - |
| 1777410034 | 29.44° C | 78% | 1011.3 hPa | 0 mm | - | 289 W/m² | - |
| 1777409728 | 29.44° C | 77% | 1011.3 hPa | 0 mm | - | 376 W/m² | - |
| 1777409425 | 28.89° C | 78% | 1011.5 hPa | 0 mm | - | 317 W/m² | - |
| 1777409121 | 28.89° C | 79% | 1011.7 hPa | 0 mm | - | 270 W/m² | - |
* Rain latest hour (hover to see other rain measurements)
** Current wind speed in m/s (hover to see current wind gust speed)